Wind_Speed
19 19 18 18 18 17 17 16 15 14 13 12 12 13 14 15 15 15 15 15 15 16 16 15 16 16 16 17 17 16 16 15 15 16 15 15 16 16 15 15 15 15 15 15
21 20 21 20 19 19 18 17 16 15 14 13 13 14 14 15 15 15 15 15 15 16 16 16 17 17 17 17 18 17 17 16 16 16 16 16 17 16 16 16 16 16 15 16
23 22 22 21 18 18 18 18 17 16 14 15 15 15 15 15 15 15 14 15 15 15 16 17 16 17 16 17 18 18 18 17 17 17 17 17 17 16 16 17 17 16 16 17
24 24 25 20 19 19 19 18 18 17 16 16 16 16 16 16 16 16 15 15 16 16 16 16 17 17 17 17 18 18 18 18 18 18 18 18 18 18 18 17 17 17 17 17
25 25 24 21 19 19 20 20 19 18 18 17 17 17 16 15 15 16 16 16 16 17 17 17 17 17 18 18 18 18 18 19 19 19 19 19 19 19 18 18 18 18 17 17
25 25 24 20 19 20 21 20 19 19 18 18 18 18 16 16 16 17 17 17 18 17 17 17 17 17 17 18 18 18 18 18 19 19 19 18 19 19 19 18 18 17 17 17
25 25 23 21 20 20 21 19 19 20 19 20 20 18 17 17 17 18 18 18 18 18 17 17 16 16 16 17 17 17 18 18 18 18 18 18 18 18 18 18 18 18 18 18
25 25 22 21 21 20 19 19 20 20 21 21 20 19 19 18 18 18 18 18 18 18 18 18 17 16 16 16 17 17 17 17 18 18 18 18 18 19 19 20 20 19 19 19
26 24 23 22 22 21 21 20 20 20 21 22 21 21 20 19 18 19 19 19 19 19 19 19 18 17 17 17 17 17 17 17 17 17 17 18 19 19 19 20 19 19 19 20
27 26 25 24 24 23 22 21 21 21 22 22 22 22 22 20 20 19 19 19 19 19 19 19 19 19 18 18 18 18 18 17 17 18 18 19 19 19 20 20 20 20 20 21
28 27 26 25 24 23 24 23 23 22 22 23 23 22 22 21 21 20 19 19 19 19 20 20 20 19 19 19 19 18 18 18 19 19 19 19 20 21 21 20 20 20 21 22
28 28 27 25 25 24 23 23 24 24 24 24 23 23 22 22 21 21 20 20 19 20 20 21 21 20 20 20 19 19 19 19 19 20 21 20 20 20 20 21 22 22 22 22
29 29 28 26 25 25 25 24 24 25 25 25 24 24 23 22 22 22 21 20 20 20 21 20 21 20 20 19 19 20 20 20 20 21 21 21 21 21 21 22 22 23 23 23
29 29 29 28 26 26 26 26 25 25 25 25 24 24 23 23 22 22 21 21 21 20 20 20 21 20 20 20 20 20 20 20 21 21 21 21 22 22 22 22 23 23 24 25
29 29 29 28 28 27 26 26 26 25 24 24 24 23 23 24 23 22 21 21 21 21 21 21 21 21 21 21 21 21 21 21 21 21 21 22 22 23 23 24 24 25 25 26
29 29 28 29 28 27 27 26 25 24 24 24 24 24 23 23 23 22 22 22 22 21 21 22 22 22 22 22 22 23 22 22 23 23 23 23 23 24 24 25 25 26 26 26
28 29 29 29 29 28 28 26 26 25 24 24 24 24 23 23 23 23 23 23 22 22 22 23 23 23 23 23 23 23 23 23 24 24 24 24 25 25 26 26 26 26 27 27
28 29 29 29 29 29 28 28 27 26 25 24 24 24 24 23 23 23 23 23 23 23 24 24 24 24 24 23 23 23 24 25 25 25 25 25 26 26 27 27 27 27 28 29
28 29 29 28 28 28 28 28 27 27 26 25 25 25 25 25 25 24 24 24 24 24 24 25 25 25 25 25 25 25 25 25 25 26 26 27 27 28 28 28 28 29 29 30
27 27 27 27 27 27 28 27 26 26 26 26 26 25 25 25 26 26 26 26 25 25 25 25 26 26 26 26 26 26 26 26 26 26 27 27 28 28 29 29 30 31 31 32
27 27 27 26 26 26 26 26 26 25 25 25 25 25 26 26 26 26 26 26 26 26 26 26 26 27 27 27 27 27 27 27 27 28 28 28 29 29 29 30 30 31 32 33
27 26 26 26 26 25 25 26 26 26 26 26 26 26 26 27 27 27 26 26 27 27 27 27 27 27 27 28 28 29 29 29 30 30 30 30 30 30 30 30 31 32 33 33
27 26 26 26 26 26 25 25 25 26 26 26 27 27 26 26 27 27 27 26 27 27 28 28 28 29 29 29 30 30 30 30 30 31 31 32 31 32 32 33 33 33 34 35
26 26 27 27 26 26 26 26 26 26 27 27 27 27 27 27 27 27 28 28 28 28 28 29 29 30 30 30 31 31 31 31 32 32 32 33 33 33 34 34 34 35 35 35
26 25 26 26 26 26 26 27 27 27 28 28 28 28 27 28 28 28 28 29 29 29 30 30 31 31 31 31 32 32 32 32 33 33 33 33 34 34 35 36 36 36 37 37
27 26 26 26 26 26 27 27 27 27 27 28 28 28 28 28 28 29 29 29 29 30 30 30 30 30 31 31 32 32 33 33 34 34 35 35 35 36 36 36 36 36 37 37
27 26 26 26 26 26 27 26 26 26 27 27 27 28 28 27 28 28 29 29 29 29 29 29 30 30 31 31 32 32 33 34 35 35 36 36 36 37 37 37 37 37 36 36
Wind_Direction
243 243 244 245 247 250 254 257 260 261 260 257 254 251 252 252 253 253 254 253 251 246 242 240 240 239 239 239 240 242 242 244 247 249 252 254 255 257 260 263 264 262 262 265
244 245 245 246 247 250 253 256 259 259 257 254 254 252 251 250 252 254 254 256 254 249 244 243 242 241 242 241 242 242 244 247 250 250 252 255 256 259 262 264 265 263 262 266
245 245 248 245 245 249 253 256 259 259 257 254 254 256 255 252 250 252 256 255 254 250 246 243 243 242 243 244 243 244 245 248 248 249 253 256 257 261 263 265 265 266 267 270
246 246 248 249 245 248 251 252 254 255 254 253 255 257 257 254 253 253 256 256 253 249 248 246 245 245 243 244 245 246 246 248 249 252 255 258 259 262 264 264 265 269 270 270
246 247 249 248 249 249 250 249 251 252 251 253 255 255 255 256 255 255 254 253 254 250 248 246 247 245 244 244 244 245 249 251 252 254 257 258 259 261 263 266 269 272 271 270
245 248 250 249 249 250 250 249 250 251 250 250 251 252 254 256 257 257 255 253 255 252 250 249 247 246 247 246 246 247 250 252 254 254 257 259 260 262 265 267 270 272 273 272
243 247 249 248 248 248 249 250 247 247 248 246 249 252 254 254 254 256 256 254 255 255 252 252 250 249 248 246 245 248 251 254 257 258 259 260 260 261 263 266 269 272 274 275
241 245 247 248 249 248 248 249 249 247 246 246 246 248 250 252 254 255 255 254 255 254 253 254 255 254 253 250 249 251 255 257 257 258 258 257 257 259 262 267 269 272 274 276
242 244 244 245 247 248 248 248 248 246 245 247 248 249 250 252 254 254 251 253 254 254 253 253 253 253 254 252 252 255 258 257 256 257 257 257 260 262 265 270 270 272 276 279
241 241 243 244 246 248 248 249 248 247 246 248 250 249 250 252 253 253 253 251 252 253 252 251 250 251 250 250 252 255 257 256 256 257 260 262 264 267 270 273 272 274 278 280
242 241 242 243 244 246 246 245 246 246 246 247 249 250 252 253 252 251 252 250 250 252 251 250 249 249 249 250 252 254 256 255 256 258 260 262 266 268 270 272 275 278 281 282
242 241 243 244 244 244 245 244 244 244 245 247 249 251 252 253 253 252 252 251 250 251 250 249 248 249 251 252 252 253 254 256 256 258 260 263 266 268 270 273 275 278 282 284
242 241 243 243 243 245 245 246 246 246 247 247 248 249 250 251 251 251 250 250 250 250 249 249 249 250 252 252 252 253 255 257 259 261 263 265 267 268 271 274 277 280 282 285
242 242 242 241 242 244 246 246 246 247 247 246 246 247 248 249 249 250 251 251 250 250 249 248 249 250 253 252 252 254 257 259 261 263 265 266 268 270 273 276 278 280 283 285
240 240 240 239 241 243 244 246 246 246 247 246 246 247 248 248 249 251 252 251 251 251 250 250 251 252 254 252 253 256 259 261 262 263 264 266 269 272 274 277 279 281 283 285
239 239 239 239 240 243 245 245 245 246 247 246 247 247 248 249 249 250 251 251 252 253 253 253 253 253 254 254 255 257 258 261 263 264 265 268 271 273 275 277 280 282 283 285
240 240 241 241 241 243 244 246 245 245 247 247 246 247 248 250 250 251 252 252 252 253 254 255 255 256 255 256 257 258 259 261 263 266 267 269 272 274 276 278 280 282 283 285
242 242 241 241 242 243 244 246 245 244 245 247 248 248 248 250 251 252 253 252 253 255 256 256 257 258 257 257 258 260 261 262 264 266 269 270 272 274 275 277 279 281 283 285
241 242 240 239 240 241 244 244 244 245 246 248 249 249 250 252 253 254 255 255 255 255 255 256 256 257 257 258 258 260 261 263 265 266 268 270 273 275 275 277 280 282 284 286
239 239 239 239 239 242 244 245 246 246 247 248 249 250 252 253 253 254 255 256 257 257 257 258 258 258 258 259 259 260 262 264 266 267 268 271 273 274 275 277 280 283 284 286
238 238 239 239 241 242 242 242 244 246 247 248 250 252 253 253 254 255 256 257 257 258 259 260 260 260 259 259 259 261 263 265 267 268 269 271 274 276 278 279 281 283 285 287
237 239 241 241 241 240 239 241 244 246 248 250 252 253 253 254 255 256 257 258 258 259 260 261 261 260 260 260 261 263 266 267 268 269 270 272 275 277 278 280 281 283 285 287
238 240 242 242 240 239 240 242 245 247 249 251 252 252 253 254 255 255 256 258 260 260 261 261 261 261 261 261 262 264 266 268 269 271 272 272 274 277 279 281 283 284 285 287
238 241 242 240 239 240 241 243 246 247 249 250 252 252 253 254 254 255 257 258 260 261 262 262 262 261 261 262 263 264 266 268 269 271 273 274 275 277 279 281 283 284 285 286
238 241 242 240 239 241 244 245 247 249 250 251 252 253 254 255 255 256 258 259 260 262 263 263 263 263 263 263 263 265 266 268 270 272 273 275 276 278 280 282 283 284 285 285
239 241 241 241 241 243 245 247 249 251 251 252 253 254 255 255 256 257 258 259 261 263 264 264 264 264 264 264 265 266 268 269 271 273 274 275 277 279 281 282 283 284 285 285
238 240 241 241 241 244 245 246 249 250 251 252 252 254 254 255 256 258 259 260 262 264 265 265 265 265 265 266 267 268 270 271 273 275 276 276 277 278 279 281 282 283 285 286
Height
5807 5809 5810 5812 5814 5814 5815 5817 5817 5819 5819 5821 5821 5822 5822 5823 5823 5824 5825 5825 5826 5826 5827 5828 5830 5831 5832 5834 5835 5836 5837 5839 5840 5841 5842 5843 5843 5844 5844 5844 5845 5845 5845 5846
5802 5804 5805 5807 5809 5811 5812 5813 5813 5814 5816 5817 5817 5818 5818 5819 5820 5821 5821 5821 5822 5822 5823 5824 5825 5827 5828 5830 5831 5833 5834 5835 5836 5837 5838 5839 5839 5840 5840 5841 5841 5841 5841 5841
5797 5799 5799 5802 5806 5806 5807 5808 5809 5810 5813 5813 5813 5814 5814 5815 5816 5817 5817 5817 5818 5819 5819 5820 5821 5823 5824 5825 5827 5828 5830 5831 5832 5833 5834 5835 5835 5836 5836 5836 5837 5837 5837 5837
5791 5793 5794 5800 5801 5802 5803 5804 5805 5806 5807 5808 5809 5810 5810 5811 5812 5812 5813 5813 5814 5814 5815 5816 5817 5818 5820 5821 5822 5824 5825 5826 5828 5829 5829 5830 5831 5832 5832 5832 5832 5832 5832 5832
5785 5786 5788 5793 5795 5797 5797 5799 5800 5801 5803 5804 5804 5805 5806 5807 5807 5808 5808 5809 5810 5810 5811 5812 5813 5814 5816 5817 5818 5820 5821 5822 5823 5824 5825 5826 5826 5827 5827 5828 5828 5828 5827 5827
5778 5780 5783 5789 5791 5791 5792 5794 5796 5796 5798 5799 5799 5801 5803 5803 5803 5803 5804 5805 5805 5806 5806 5807 5808 5809 5811 5812 5814 5815 5817 5818 5819 5820 5820 5821 5822 5822 5823 5823 5823 5823 5823 5823
5772 5774 5777 5782 5784 5785 5787 5789 5790 5791 5792 5793 5794 5796 5798 5798 5798 5799 5799 5800 5800 5801 5802 5803 5804 5805 5806 5808 5809 5811 5812 5813 5814 5815 5816 5817 5817 5818 5818 5818 5819 5819 5818 5818
5766 5768 5774 5776 5777 5780 5781 5782 5783 5785 5786 5787 5789 5790 5792 5792 5793 5794 5794 5795 5796 5797 5798 5799 5800 5801 5802 5803 5805 5806 5807 5808 5809 5810 5811 5812 5813 5813 5813 5813 5813 5813 5813 5813
5761 5765 5767 5769 5771 5773 5774 5776 5777 5779 5781 5782 5783 5785 5786 5787 5788 5789 5789 5790 5791 5792 5793 5794 5795 5796 5798 5799 5800 5801 5802 5803 5804 5805 5806 5807 5807 5808 5808 5808 5808 5808 5808 5808
5754 5757 5760 5762 5764 5766 5768 5769 5771 5773 5774 5776 5777 5779 5781 5782 5783 5783 5784 5785 5786 5787 5788 5789 5790 5792 5793 5794 5796 5797 5798 5799 5800 5800 5801 5802 5803 5803 5803 5803 5803 5803 5803 5802
5746 5750 5752 5755 5757 5759 5761 5763 5764 5766 5768 5769 5771 5773 5774 5776 5777 5778 5779 5780 5780 5782 5783 5784 5785 5786 5788 5789 5791 5792 5793 5794 5795 5796 5796 5797 5797 5797 5798 5798 5798 5798 5797 5796
5739 5742 5745 5748 5750 5751 5753 5755 5757 5759 5761 5763 5764 5766 5768 5769 5771 5772 5773 5774 5775 5776 5777 5778 5780 5781 5782 5784 5785 5786 5787 5788 5789 5790 5791 5791 5791 5792 5792 5792 5792 5791 5791 5790
5731 5734 5737 5739 5742 5744 5746 5748 5750 5752 5754 5756 5758 5760 5761 5763 5764 5765 5767 5768 5769 5770 5771 5773 5774 5775 5777 5778 5780 5781 5782 5783 5784 5784 5785 5785 5786 5786 5786 5786 5785 5785 5784 5783
5722 5725 5728 5731 5734 5737 5739 5741 5743 5745 5747 5749 5751 5753 5754 5756 5758 5759 5760 5762 5763 5764 5765 5767 5768 5770 5771 5772 5774 5775 5776 5777 5778 5778 5779 5779 5780 5780 5780 5780 5779 5778 5777 5776
5713 5716 5720 5723 5726 5729 5731 5733 5736 5738 5740 5742 5744 5746 5747 5749 5751 5753 5754 5755 5757 5758 5759 5761 5762 5764 5765 5766 5768 5769 5770 5771 5771 5772 5773 5773 5773 5773 5773 5773 5772 5771 5770 5769
5705 5708 5712 5715 5718 5721 5723 5726 5728 5730 5732 5735 5737 5739 5740 5742 5744 5746 5747 5749 5750 5752 5753 5754 5756 5757 5758 5760 5761 5762 5763 5764 5765 5765 5766 5766 5766 5766 5766 5765 5765 5764 5763 5762
5697 5700 5704 5707 5711 5713 5716 5718 5721 5723 5725 5727 5729 5731 5733 5735 5737 5739 5740 5742 5743 5745 5746 5748 5749 5750 5751 5753 5754 5755 5756 5757 5758 5758 5759 5759 5759 5759 5759 5758 5757 5756 5755 5754
5689 5692 5695 5699 5702 5705 5708 5711 5713 5715 5718 5720 5722 5724 5726 5728 5730 5732 5733 5735 5736 5738 5739 5741 5742 5743 5744 5745 5746 5747 5749 5750 5750 5751 5751 5751 5751 5751 5751 5750 5749 5748 5747 5745
5681 5685 5688 5691 5693 5697 5700 5703 5705 5708 5710 5712 5715 5717 5719 5721 5723 5724 5726 5727 5728 5730 5732 5733 5734 5735 5736 5738 5739 5740 5741 5742 5742 5743 5743 5743 5743 5743 5742 5741 5740 5739 5738 5737
5674 5677 5680 5683 5686 5689 5692 5695 5697 5700 5702 5704 5707 5709 5711 5713 5714 5716 5718 5719 5721 5722 5724 5725 5726 5727 5729 5730 5731 5732 5733 5733 5734 5734 5735 5735 5734 5734 5733 5732 5732 5731 5729 5727
5667 5670 5673 5676 5678 5681 5684 5687 5689 5692 5695 5697 5699 5701 5703 5705 5706 5708 5709 5711 5713 5714 5715 5716 5718 5719 5720 5721 5723 5724 5724 5725 5726 5726 5726 5726 5726 5725 5724 5723 5722 5721 5719 5718
5660 5663 5666 5668 5671 5674 5677 5679 5682 5684 5687 5689 5691 5693 5695 5696 5698 5700 5701 5703 5704 5705 5706 5708 5709 5710 5712 5713 5714 5715 5716 5716 5716 5717 5717 5717 5716 5715 5715 5713 5712 5711 5709 5707
5653 5655 5658 5661 5663 5666 5669 5672 5674 5676 5679 5681 5683 5685 5686 5688 5690 5691 5693 5694 5695 5696 5697 5699 5700 5701 5702 5703 5705 5706 5706 5707 5707 5707 5707 5707 5706 5705 5705 5704 5702 5701 5699 5697
5645 5648 5651 5653 5656 5659 5661 5664 5666 5668 5670 5673 5674 5676 5678 5679 5681 5683 5684 5685 5686 5687 5688 5689 5690 5691 5693 5694 5695 5696 5696 5697 5697 5697 5697 5696 5696 5695 5694 5693 5691 5690 5688 5686
5638 5641 5643 5646 5649 5651 5654 5656 5658 5660 5662 5664 5666 5667 5669 5670 5672 5674 5675 5676 5677 5678 5679 5680 5681 5681 5682 5684 5685 5686 5686 5686 5687 5687 5686 5686 5685 5684 5683 5682 5680 5678 5677 5675
5632 5634 5637 5639 5642 5644 5646 5648 5650 5652 5653 5655 5657 5658 5660 5661 5663 5664 5665 5666 5667 5668 5669 5670 5671 5672 5673 5674 5674 5675 5675 5675 5676 5675 5675 5674 5673 5672 5671 5670 5668 5667 5665 5663
5624 5627 5629 5632 5634 5636 5638 5640 5642 5644 5645 5647 5648 5650 5651 5652 5653 5655 5656 5657 5658 5659 5659 5660 5661 5662 5663 5663 5664 5664 5664 5664 5664 5664 5663 5662 5661 5660 5659 5658 5656 5655 5653 5651